WX5RP Weather Reports


time (UTC)temp
F
wind
direction
speed
knots
gust
knots
rain 1hr
in
rain 24hr
in
rain mn
in
humidity
%
barometer
mb
20260506044516 55 338 5.2 6.1 0.00 0.00 0.00 52 1016.1
20260506043519 54 338 4.3 5.2 0.00 0.00 0.00 52 1015.7
20260506042516 55 338 4.3 5.2 0.00 0.00 0.00 52 1015.1
20260506041516 55 338 5.2 6.1 0.00 0.00 0.00 51 1015.1
20260506040516 57 0 5.2 7.0 0.00 0.00 0.00 50 1015.8
20260506035515 57 338 5.2 6.1 0.00 0.00 0.00 49 1015.3
20260506034515 58 338 5.2 6.1 0.00 0.00 0.00 52 1015.3
20260506033515 60 338 5.2 7.0 0.00 0.00 0.00 44 1014.6
20260506032515 63 0 5.2 6.1 0.00 0.00 0.00 42 1013.9
20260506031516 64 338 7.8 11.3 0.00 0.00 0.00 39 1013.9
20260506030515 64 338 7.0 10.4 0.00 0.00 0.00 39 1014.7
20260506025515 65 338 6.1 7.8 0.00 0.00 0.00 39 1014.3
20260506024515 66 338 6.1 9.6 0.00 0.00 0.00 36 1014.3
20260506023515 67 338 7.8 11.3 0.00 0.00 0.00 37 1013.5
20260506022515 68 338 8.7 12.2 0.00 0.00 0.00 35 1013.3
20260506021515 69 0 10.4 13.9 0.00 0.00 0.00 36 1013.1
20260506020516 69 0 11.3 17.4 0.00 0.00 0.00 34 1014.1
20260506015516 70 0 9.6 13.9 0.00 0.00 0.00 35 1013.5
20260506014516 70 0 9.6 15.6 0.00 0.00 0.00 32 1013.5
20260506013516 70 0 8.7 13.0 0.00 0.00 0.00 35 1013.4
20260506012516 71 0 11.3 17.4 0.00 0.00 0.00 34 1012.9
20260506011516 71 338 12.2 17.4 0.00 0.00 0.00 32 1012.9
20260506010516 70 0 11.3 15.6 0.00 0.00 0.00 34 1013.6
20260506005516 71 0 12.2 17.4 0.00 0.00 0.00 34 1013.5
20260506004516 72 0 13.0 19.1 0.00 0.00 0.00 33 1013.5
20260506003516 70 0 11.3 17.4 0.00 0.00 0.00 38 1013.5
20260506002516 71 23 12.2 16.5 0.00 0.00 0.00 38 1013.5
20260506001516 72 0 10.4 15.6 0.00 0.00 0.00 35 1013.4
20260506000516 71 0 9.6 13.9 0.00 0.00 0.00 37 1013.4
20260505235516 70 0 7.8 10.4 0.00 0.00 0.00 40 1013.2
20260505234515 73 0 8.7 13.0 0.00 0.00 0.00 33 1013.4
20260505233516 75 0 9.6 13.9 0.00 0.00 0.00 32 1013.1
20260505232515 74 0 8.7 16.5 0.00 0.00 0.00 32 1013.5
20260505231516 72 23 10.4 16.5 0.00 0.00 0.00 36 1013.2
20260505230515 74 23 10.4 17.4 0.00 0.00 0.00 34 1013.5
20260505225515 72 23 11.3 20.0 0.00 0.00 0.00 34 1013.4
20260505224515 75 23 9.6 17.4 0.00 0.00 0.00 31 1013.7
20260505223515 75 338 9.6 16.5 0.00 0.00 0.00 27 1014.0
20260505222515 73 338 7.0 13.0 0.00 0.00 0.00 33 1014.3
20260505221515 71 23 8.7 12.2 0.00 0.00 0.00 35 1014.0
20260505220518 72 23 7.8 11.3 0.00 0.00 0.00 35 1013.5
20260505215517 73 23 5.2 7.8 0.00 0.00 0.00 32 1014.3
20260505214517 71 0 7.8 13.0 0.00 0.00 0.00 32 1014.0
20260505213517 72 0 7.8 13.0 0.00 0.00 0.00 33 1014.0
20260505212517 73 0 7.0 12.2 0.00 0.00 0.00 33 1013.7
20260505211517 74 0 6.1 12.2 0.00 0.00 0.00 30 1013.9
20260505210517 76 23 7.0 11.3 0.00 0.00 0.00 27 1013.9
20260505205517 74 0 6.1 11.3 0.00 0.00 0.00 30 1014.2
20260505204517 74 23 9.6 13.0 0.00 0.00 0.00 32 1014.3
20260505203517 75 0 5.2 10.4 0.00 0.00 0.00 29 1014.2
20260505202517 71 338 7.8 11.3 0.00 0.00 0.00 30 1014.2
20260505201516 71 0 7.8 12.2 0.00 0.00 0.00 35 1014.3
20260505200517 73 23 9.6 15.6 0.00 0.00 0.00 35 1014.0
20260505195516 72 23 7.0 12.2 0.00 0.00 0.00 29 1014.0
20260505194517 73 338 9.6 15.6 0.00 0.00 0.00 29 1014.0
20260505193516 71 23 5.2 9.6 0.00 0.00 0.00 32 1014.0
20260505192517 72 23 7.8 11.3 0.00 0.00 0.00 32 1014.3
20260505191517 72 23 8.7 13.9 0.00 0.00 0.00 37 1015.0
20260505190517 71 0 7.8 12.2 0.00 0.00 0.00 32 1013.8
20260505185516 70 23 7.0 10.4 0.00 0.00 0.00 35 1013.4
20260505184516 71 0 9.6 13.0 0.00 0.00 0.00 33 1013.7
20260505183516 68 0 7.8 11.3 0.00 0.00 0.00 41 1014.1
20260505182516 68 23 9.6 13.9 0.00 0.00 0.00 39 1014.6
20260505181516 68 0 7.8 12.2 0.00 0.00 0.00 37 1014.8
20260505180516 67 23 5.2 7.0 0.00 0.00 0.00 40 1014.4
20260505175516 69 23 7.0 11.3 0.00 0.00 0.00 42 1013.8
20260505174516 69 23 6.1 12.2 0.00 0.00 0.00 42 1014.1
20260505173516 69 23 2.6 13.9 0.00 0.00 0.00 41 1014.3
20260505172516 67 338 3.5 7.8 0.00 0.00 0.00 41 1014.7
20260505171516 66 315 4.3 6.1 0.00 0.00 0.00 45 1014.8
20260505170516 65 0 4.3 7.8 0.00 0.00 0.00 44 1014.2
20260505165516 64 203 2.6 6.1 0.00 0.00 0.00 45 1014.6
20260505164515 63 270 3.5 6.1 0.00 0.00 0.00 46 1014.0
20260505163517 62 270 3.5 7.0 0.00 0.00 0.00 46 1014.1
20260505162515 61 270 3.5 6.1 0.00 0.00 0.00 49 1014.4
20260505161516 59 248 2.6 5.2 0.00 0.00 0.00 51 1014.1
20260505160515 58 203 4.3 7.8 0.00 0.00 0.00 53 1014.4
20260505152516 53 203 5.2 7.0 0.00 0.00 0.00 64 1014.6
20260505151515 52 180 5.2 7.0 0.00 0.00 0.00 66 1014.6
20260505150515 51 180 4.3 7.0 0.00 0.00 0.00 67 1014.2
20260505140518 43 180 3.5 6.1 0.00 0.00 0.00 79 1013.7
20260505124517 39 180 4.3 6.1 0.00 0.00 0.00 81 1013.3
20260505123516 39 203 5.2 7.0 0.00 0.00 0.00 81 1013.4
20260505122517 39 180 4.3 6.1 0.00 0.00 0.00 81 1013.1
20260505121516 39 180 4.3 6.1 0.00 0.00 0.00 81 1013.4
20260505120516 40 180 3.5 5.2 0.00 0.00 0.00 81 1012.9
20260505115516 40 180 6.1 7.8 0.00 0.00 0.00 82 1012.4
20260505114516 40 180 5.2 9.6 0.00 0.00 0.00 83 1012.7
20260505113517 39 180 5.2 7.8 0.00 0.00 0.00 83 1012.3
20260505112516 39 180 4.3 6.1 0.00 0.00 0.00 83 1012.1
20260505111516 39 180 4.3 6.1 0.00 0.00 0.00 83 1012.1
20260505110516 39 180 3.5 5.2 0.00 0.00 0.00 83 1012.8
20260505101516 42 203 5.2 7.0 0.00 0.00 0.00 82 1013.0
20260505100516 42 180 4.3 5.2 0.00 0.00 0.00 82 1012.5
20260505095516 42 203 5.2 7.0 0.00 0.00 0.00 82 1012.3
20260505094516 42 203 6.1 7.8 0.00 0.00 0.00 82 1011.7
20260505093516 43 180 5.2 7.8 0.00 0.00 0.00 82 1011.9
20260505092516 43 203 6.1 7.8 0.00 0.00 0.00 82 1012.3
20260505091516 43 180 4.3 7.0 0.00 0.00 0.00 81 1012.6
20260505090516 43 203 5.2 7.8 0.00 0.00 0.00 82 1012.3
20260505085516 43 180 4.3 6.1 0.00 0.00 0.00 81 1012.0
20260505084517 44 180 4.3 6.1 0.00 0.00 0.00 81 1012.4
20260505083516 44 203 5.2 7.0 0.00 0.00 0.00 81 1012.4
20260505082519 43 180 4.3 6.1 0.00 0.00 0.00 80 1012.5
20260505081515 44 180 4.3 5.2 0.00 0.00 0.00 79 1012.8
20260505080515 44 180 5.2 7.0 0.00 0.00 0.00 79 1012.8
20260505075516 44 180 4.3 8.7 0.00 0.00 0.00 77 1012.8
20260505074515 44 203 2.6 4.3 0.00 0.00 0.00 77 1012.8
20260505073516 44 180 5.2 7.0 0.00 0.00 0.00 76 1012.6
20260505072515 44 180 3.5 5.2 0.00 0.00 0.00 72 1012.5
20260505071515 47 180 3.5 4.3 0.00 0.00 0.00 66 1012.8
20260505070517 51 203 3.5 6.1 0.00 0.00 0.00 58 1012.5
20260505065517 49 248 2.6 5.2 0.00 0.00 0.00 56 1012.5
20260505064517 49 203 2.6 4.3 0.00 0.00 0.00 61 1012.3
20260505063517 49 203 3.5 5.2 0.00 0.00 0.00 58 1012.0
20260505062517 51 203 4.3 5.2 0.00 0.00 0.00 55 1011.8
20260505061517 56 315 3.5 6.1 0.00 0.00 0.00 40 1012.5
20260505060517 57 338 8.7 11.3 0.00 0.00 0.00 36 1011.9
20260505055517 56 338 8.7 13.9 0.00 0.00 0.00 38 1011.3
20260505054517 57 315 6.1 9.6 0.00 0.00 0.00 41 1011.7
20260505053519 58 338 9.6 13.9 0.00 0.00 0.00 36 1011.1
20260505052516 60 338 12.2 19.1 0.00 0.00 0.00 33 1010.9
20260505051517 60 0 13.9 20.0 0.00 0.00 0.00 33 1010.9
20260505050517 60 338 13.0 20.0 0.00 0.00 0.00 35 1011.3